Location: Gro� Glienicke
(52.4675°N, 13.1079°E)
Time: 02:28:44
(UTC+00:00)

Cosmos 1842 Rocket - Pass Details

Date: 06 July 2020
Orbit: 604 x 635 km, 82.5° (Epoch: 04 August)

Event Time Altitude Azimuth Distance (km) Brightness Sun altitude
Rises 20:18:31 0° 353° (N) 2,892 8.1 -6.0°
Reaches altitude 10° 20:20:52 10° 0° (N) 1,978 7.0 -6.2°
Maximum altitude 20:25:02 42° 73° (ENE) 873 4.2 -6.6°
Drops below altitude 10° 20:29:09 10° 145° (SE) 1,953 5.4 -7.0°
Enters shadow 20:29:24 - 146° (SE) 2,051 5.5 -7.0°
